LRSV Weather Reports


time (UTC)temp
C
wind
direction
speed
KPH
gust
KPH
rain 1hr
cm
rain 24hr
cm
rain mn
cm
humidity
%
barometer
mb
20260503194845 12 230 12.9 0.0 0.00 0.00 0.00 51 1017.0
20260503193437 12 230 12.9 0.0 0.00 0.00 0.00 51 1017.0
20260503191820 12 220 11.3 0.0 0.00 0.00 0.00 51 1018.0
20260503190320 12 220 11.3 0.0 0.00 0.00 0.00 51 1018.0
20260503184936 12 210 11.3 0.0 0.00 0.00 0.00 47 1018.0
20260503183319 12 210 11.3 0.0 0.00 0.00 0.00 47 1018.0
20260503181820 12 210 9.7 0.0 0.00 0.00 0.00 47 1018.0
20260503180319 12 210 9.7 0.0 0.00 0.00 0.00 47 1018.0
20260503174840 12 190 8.0 0.0 0.00 0.00 0.00 47 1018.0
20260503173345 12 190 8.0 0.0 0.00 0.00 0.00 47 1018.0
20260503171820 13 190 9.7 0.0 0.00 0.00 0.00 48 1018.0
20260503170320 13 190 9.7 0.0 0.00 0.00 0.00 48 1018.0
20260503150320 17 3.2 0.0 0.00 0.00 0.00 34 1019.0
20260503130320 16 130 8.0 0.0 0.00 0.00 0.00 36 1020.0
20260503110341 15 3.2 0.0 0.00 0.00 0.00 34 1021.0
20260503090341 12 8.0 0.0 0.00 0.00 0.00 38 1022.0
20260503080331 12 170 8.0 0.0 0.00 0.00 0.00 38 1022.0
20260503071819 10 230 9.7 0.0 0.00 0.00 0.00 54 1022.0
20260503070321 10 230 9.7 0.0 0.00 0.00 0.00 54 1022.0
20260503060320 7 230 11.3 0.0 0.00 0.00 0.00 66 1022.0
20260503054820 7 230 11.3 0.0 0.00 0.00 0.00 71 1022.0
20260503053320 7 230 11.3 0.0 0.00 0.00 0.00 71 1022.0
20260503051820 6 230 12.9 0.0 0.00 0.00 0.00 76 1022.0
20260503050320 6 230 12.9 0.0 0.00 0.00 0.00 76 1022.0
20260503044820 5 250 4.8 0.0 0.00 0.00 0.00 76 1022.0
20260503043321 5 250 4.8 0.0 0.00 0.00 0.00 76 1022.0
20260503041820 5 1.6 0.0 0.00 0.00 0.00 70 1022.0
20260503040343 5 1.6 0.0 0.00 0.00 0.00 70 1022.0
20260503034822 3 250 9.7 0.0 0.00 0.00 0.00 70 1022.0
20260503033320 3 250 9.7 0.0 0.00 0.00 0.00 70 1022.0
20260503031820 2 240 9.7 0.0 0.00 0.00 0.00 75 1021.0
20260503030320 2 240 9.7 0.0 0.00 0.00 0.00 75 1021.0
20260503024835 5 240 11.3 0.0 0.00 0.00 0.00 66 1021.0
20260503023320 5 240 11.3 0.0 0.00 0.00 0.00 66 1021.0
20260503021820 5 250 11.3 0.0 0.00 0.00 0.00 66 1021.0
20260503020320 5 250 11.3 0.0 0.00 0.00 0.00 66 1021.0
20260503014820 5 250 11.3 0.0 0.00 0.00 0.00 66 1021.0
20260503013320 5 250 11.3 0.0 0.00 0.00 0.00 66 1021.0
20260503011820 6 250 11.3 0.0 0.00 0.00 0.00 61 1021.0
20260503010320 6 250 11.3 0.0 0.00 0.00 0.00 61 1021.0
20260503004820 5 240 11.3 0.0 0.00 0.00 0.00 66 1022.0
20260503003320 5 240 11.3 0.0 0.00 0.00 0.00 66 1022.0
20260503001820 3 240 11.3 0.0 0.00 0.00 0.00 70 1022.0
20260503000320 3 240 11.3 0.0 0.00 0.00 0.00 70 1022.0
20260502234820 3 240 9.7 0.0 0.00 0.00 0.00 70 1022.0
20260502233320 3 240 9.7 0.0 0.00 0.00 0.00 70 1022.0
20260502231820 3 230 9.7 0.0 0.00 0.00 0.00 75 1022.0
20260502230320 3 230 9.7 0.0 0.00 0.00 0.00 75 1022.0
20260502224820 6 220 9.7 0.0 0.00 0.00 0.00 61 1022.0
20260502223320 6 220 9.7 0.0 0.00 0.00 0.00 61 1022.0
20260502221820 3 240 9.7 0.0 0.00 0.00 0.00 75 1022.0
20260502220320 3 240 9.7 0.0 0.00 0.00 0.00 75 1022.0
20260502214820 5 230 9.7 0.0 0.00 0.00 0.00 66 1023.0
20260502213320 5 230 9.7 0.0 0.00 0.00 0.00 66 1023.0
20260502211820 5 220 8.0 0.0 0.00 0.00 0.00 66 1023.0
20260502210320 5 220 8.0 0.0 0.00 0.00 0.00 66 1023.0
20260502204820 5 200 4.8 0.0 0.00 0.00 0.00 66 1023.0
20260502203320 5 200 4.8 0.0 0.00 0.00 0.00 66 1023.0
20260502201820 7 160 4.8 0.0 0.00 0.00 0.00 57 1023.0
20260502200320 7 160 4.8 0.0 0.00 0.00 0.00 57 1023.0